TimeEST,TemperatureF,Dew PointF,Humidity,Sea Level PressureIn,VisibilityMPH,Wind Direction,Wind SpeedMPH,Gust SpeedMPH,PrecipitationIn,Events,Conditions,WindDirDegrees,DateUTC
12:54 AM,41.0,27.0,57,30.01,10.0,NW,9.2,-,N/A,,Clear,320,2012-11-04 04:54:00
1:54 AM,39.0,27.0,62,30.02,10.0,West,5.8,-,N/A,,Clear,280,2012-11-04 05:54:00
1:54 AM,37.9,27.0,65,30.03,10.0,West,4.6,-,N/A,,Clear,270,2012-11-04 06:54:00
2:54 AM,36.0,27.0,70,30.02,10.0,North,-9999.0,-,N/A,,Clear,0,2012-11-04 07:54:00
3:54 AM,34.0,27.0,75,30.02,10.0,Calm,Calm,-,N/A,,Clear,0,2012-11-04 08:54:00
4:54 AM,34.0,26.1,73,30.02,10.0,WSW,3.5,-,N/A,,Clear,250,2012-11-04 09:54:00
5:54 AM,34.0,27.0,75,30.02,10.0,WNW,6.9,-,N/A,,Clear,300,2012-11-04 10:54:00
6:54 AM,34.0,27.0,75,30.04,10.0,West,6.9,-,N/A,,Clear,260,2012-11-04 11:54:00
7:54 AM,39.0,28.0,65,30.06,10.0,WNW,8.1,-,N/A,,Clear,290,2012-11-04 12:54:00
8:54 AM,43.0,28.0,56,30.05,10.0,NW,13.8,-,N/A,,Clear,320,2012-11-04 13:54:00
9:54 AM,45.0,28.9,53,30.04,10.0,NW,12.7,-,N/A,,Clear,310,2012-11-04 14:54:00
10:54 AM,46.9,28.9,50,30.02,10.0,NW,15.0,19.6,N/A,,Mostly Cloudy,310,2012-11-04 15:54:00
11:54 AM,48.0,28.9,48,30.00,10.0,WNW,15.0,-,N/A,,Scattered Clouds,290,2012-11-04 16:54:00
12:54 PM,46.9,28.9,50,29.99,10.0,West,13.8,19.6,N/A,,Mostly Cloudy,280,2012-11-04 17:54:00
1:54 PM,48.0,28.9,48,29.99,10.0,NW,13.8,-,N/A,,Mostly Cloudy,310,2012-11-04 18:54:00
2:54 PM,46.0,28.0,50,29.98,10.0,WNW,11.5,-,N/A,,Partly Cloudy,300,2012-11-04 19:54:00
3:54 PM,46.9,28.9,50,29.99,10.0,WNW,11.5,-,N/A,,Partly Cloudy,300,2012-11-04 20:54:00
4:54 PM,44.1,28.9,55,29.99,10.0,NW,9.2,-,N/A,,Overcast,320,2012-11-04 21:54:00
5:54 PM,42.1,28.9,60,30.01,10.0,NNW,5.8,-,N/A,,Overcast,330,2012-11-04 22:54:00
6:54 PM,41.0,28.9,62,30.02,10.0,NW,3.5,-,N/A,,Overcast,320,2012-11-04 23:54:00
7:54 PM,42.1,28.9,60,30.02,10.0,WNW,5.8,-,N/A,,Overcast,290,2012-11-05 00:54:00
8:54 PM,41.0,28.9,62,30.03,10.0,WSW,4.6,-,N/A,,Overcast,250,2012-11-05 01:54:00
9:54 PM,41.0,30.0,65,30.03,10.0,West,4.6,-,N/A,,Overcast,260,2012-11-05 02:54:00
10:54 PM,39.9,30.0,68,30.01,10.0,West,4.6,-,N/A,,Overcast,270,2012-11-05 03:54:00